HST6125 LRIA-HEGN

Flight info

Callsign HST6125
Flight time N/A
Altitude 35000
Route ABOLO T74 GUXVA DCT MATEL N616 RIXEN UG1 IST UT35 AYT UA16 TOMBI M855 RASDA A16 CVO L315 SOKOT SOKOT1A
Aircraft A320/M-SDE3FGHIRWY/LB1

Departure

Time 2026-04-26 11:08
Airport Iaşi International Airport (LRIA)

Arrival

Time N/A
Airport Hurghada International Airport (HEGN)
Time Latitude Longitude Altitude Speed Heading
2026-04-26 10:56 47.17644 27.61897 392 ft 0 kts 275°
2026-04-26 11:01 47.17643 27.61906 392 ft 4 kts 274°
2026-04-26 11:01 47.17647 27.61941 391 ft 2 kts 243°
2026-04-26 11:01 47.17659 27.61969 391 ft 4 kts 211°
2026-04-26 11:01 47.17681 27.61972 391 ft 4 kts 146°
2026-04-26 11:02 47.17702 27.61949 390 ft 3 kts 152°
2026-04-26 11:02 47.17705 27.61947 390 ft 2 kts 154°
2026-04-26 11:03 47.17705 27.61946 389 ft 0 kts 154°
2026-04-26 11:04 47.17705 27.61947 389 ft 0 kts 154°
2026-04-26 11:04 47.17683 27.61962 389 ft 5 kts 154°
2026-04-26 11:04 47.17642 27.61992 389 ft 8 kts 154°
2026-04-26 11:04 47.17585 27.62032 389 ft 10 kts 154°
2026-04-26 11:05 47.17513 27.62085 389 ft 13 kts 152°
2026-04-26 11:05 47.17432 27.62157 389 ft 15 kts 148°
2026-04-26 11:05 47.17337 27.62242 388 ft 17 kts 149°
2026-04-26 11:05 47.17269 27.62393 376 ft 18 kts 73°
2026-04-26 11:06 47.17343 27.62571 372 ft 24 kts 60°
2026-04-26 11:06 47.17327 27.62719 360 ft 25 kts 141°
2026-04-26 11:06 47.17165 27.62927 350 ft 17 kts 137°
2026-04-26 11:06 47.17147 27.62870 347 ft 12 kts 340°
2026-04-26 11:07 47.17170 27.62854 348 ft 0 kts 329°
2026-04-26 11:07 47.17173 27.62851 351 ft 5 kts 329°
2026-04-26 11:08 47.17435 27.62619 365 ft 82 kts 329°
2026-04-26 11:08 47.18096 27.62030 396 ft 138 kts 328°
2026-04-26 11:08 47.18990 27.61228 810 ft 154 kts 328°
2026-04-26 11:08 47.19907 27.60446 1315 ft 157 kts 328°
2026-04-26 11:09 47.20933 27.59613 1600 ft 177 kts 330°
2026-04-26 11:09 47.22092 27.58766 1945 ft 193 kts 332°
2026-04-26 11:09 47.23314 27.57895 2461 ft 197 kts 330°
2026-04-26 11:09 47.24347 27.56571 2980 ft 200 kts 298°
2026-04-26 11:10 47.24659 27.54608 3492 ft 205 kts 264°
2026-04-26 11:10 47.24071 27.52648 4020 ft 216 kts 228°
2026-04-26 11:10 47.22757 27.51603 4495 ft 228 kts 189°
2026-04-26 11:10 47.21115 27.51770 5041 ft 241 kts 174°
2026-04-26 11:11 47.19416 27.52118 5558 ft 252 kts 175°
2026-04-26 11:11 47.17626 27.52267 6088 ft 263 kts 193°
2026-04-26 11:11 47.15941 27.51238 6603 ft 265 kts 220°
2026-04-26 11:11 47.14476 27.49571 7097 ft 268 kts 221°
2026-04-26 11:12 47.13018 27.47914 7584 ft 269 kts 221°
2026-04-26 11:12 47.11528 27.46233 8100 ft 271 kts 221°
2026-04-26 11:12 47.10020 27.44537 8615 ft 272 kts 221°
2026-04-26 11:12 47.08510 27.42846 9153 ft 274 kts 221°
2026-04-26 11:13 47.06995 27.41145 9676 ft 276 kts 221°
2026-04-26 11:13 47.05445 27.39400 10179 ft 285 kts 221°
2026-04-26 11:13 47.03850 27.37605 10659 ft 294 kts 221°
2026-04-26 11:13 47.02196 27.35746 11155 ft 302 kts 221°
2026-04-26 11:14 47.00506 27.33850 11652 ft 311 kts 222°
2026-04-26 11:14 46.98758 27.31920 12154 ft 318 kts 221°
2026-04-26 11:14 46.96945 27.30000 12671 ft 325 kts 220°
2026-04-26 11:14 46.95712 27.28717 13025 ft 330 kts 220°
2026-04-26 11:15 46.93174 27.26094 13718 ft 338 kts 220°
2026-04-26 11:15 46.91240 27.24096 14190 ft 343 kts 220°
2026-04-26 11:15 46.89279 27.22066 14672 ft 348 kts 220°
2026-04-26 11:15 46.87290 27.20003 15159 ft 352 kts 220°
2026-04-26 11:16 46.85280 27.17915 15649 ft 356 kts 220°
2026-04-26 11:16 46.83253 27.15805 16151 ft 360 kts 220°
2026-04-26 11:16 46.81899 27.14393 16490 ft 362 kts 220°
2026-04-26 11:16 46.79835 27.12242 17016 ft 365 kts 220°
2026-04-26 11:17 46.76856 27.09830 17716 ft 377 kts 205°
2026-04-26 11:17 46.74278 27.08884 18247 ft 388 kts 191°
2026-04-26 11:17 46.71557 27.08849 18723 ft 398 kts 177°
2026-04-26 11:17 46.69700 27.09378 19050 ft 405 kts 167°
2026-04-26 11:18 46.67015 27.10701 19534 ft 409 kts 164°
2026-04-26 11:18 46.64321 27.12057 20018 ft 412 kts 165°
2026-04-26 11:18 46.61593 27.13417 20517 ft 415 kts 165°
2026-04-26 11:18 46.58859 27.14770 21031 ft 416 kts 165°
2026-04-26 11:19 46.56111 27.16129 21531 ft 417 kts 165°
2026-04-26 11:19 46.53399 27.17475 22040 ft 418 kts 165°
2026-04-26 11:19 46.50647 27.18840 22568 ft 419 kts 165°
2026-04-26 11:19 46.47882 27.20213 23101 ft 419 kts 165°
2026-04-26 11:20 46.45117 27.21581 23611 ft 419 kts 165°
2026-04-26 11:20 46.42359 27.22943 24062 ft 419 kts 165°
2026-04-26 11:20 46.39601 27.24303 24518 ft 419 kts 165°
2026-04-26 11:20 46.36840 27.25663 24982 ft 418 kts 165°
2026-04-26 11:21 46.34094 27.27011 25461 ft 416 kts 165°
2026-04-26 11:21 46.31358 27.28353 25942 ft 414 kts 165°
2026-04-26 11:21 46.28635 27.29690 26417 ft 412 kts 165°
2026-04-26 11:21 46.25931 27.31023 26937 ft 409 kts 165°
2026-04-26 11:22 46.23240 27.32350 27454 ft 406 kts 165°
2026-04-26 11:22 46.20565 27.33667 27979 ft 402 kts 165°
2026-04-26 11:22 46.17942 27.34957 28505 ft 398 kts 165°
2026-04-26 11:22 46.15346 27.36231 29047 ft 393 kts 165°
2026-04-26 11:23 46.12780 27.37483 29485 ft 391 kts 165°
2026-04-26 11:23 46.10188 27.38740 29585 ft 398 kts 165°
2026-04-26 11:23 46.07519 27.40029 29589 ft 409 kts 165°
2026-04-26 11:23 46.04798 27.41347 29590 ft 419 kts 165°
2026-04-26 11:24 45.99155 27.44093 29909 ft 431 kts 165°
2026-04-26 11:24 45.96305 27.45481 30149 ft 434 kts 165°
2026-04-26 11:24 45.93432 27.46879 30395 ft 437 kts 165°
2026-04-26 11:25 45.90543 27.48286 30641 ft 440 kts 165°
2026-04-26 11:25 45.87639 27.49697 30890 ft 442 kts 165°
2026-04-26 11:25 45.84708 27.51115 31134 ft 444 kts 165°
2026-04-26 11:25 45.81776 27.52529 31391 ft 447 kts 165°
2026-04-26 11:26 45.78858 27.53934 31649 ft 449 kts 165°
2026-04-26 11:26 45.75896 27.55357 31894 ft 450 kts 165°
2026-04-26 11:26 45.72914 27.56790 32147 ft 452 kts 165°
2026-04-26 11:26 45.69929 27.58226 32413 ft 454 kts 165°
2026-04-26 11:27 45.66934 27.59666 32682 ft 455 kts 165°
2026-04-26 11:27 45.63929 27.61110 32945 ft 456 kts 165°
2026-04-26 11:27 45.60921 27.62554 33211 ft 456 kts 164°
2026-04-26 11:27 45.57897 27.64007 33486 ft 457 kts 164°
2026-04-26 11:28 45.54884 27.65456 33754 ft 457 kts 164°
2026-04-26 11:28 45.51869 27.66899 34004 ft 457 kts 164°
2026-04-26 11:28 45.48847 27.68339 34232 ft 457 kts 165°
2026-04-26 11:28 45.45824 27.69773 34472 ft 457 kts 165°
2026-04-26 11:29 45.42811 27.71203 34710 ft 457 kts 164°
2026-04-26 11:29 45.39777 27.72646 34801 ft 461 kts 164°
2026-04-26 11:29 45.33655 27.75550 34823 ft 472 kts 164°
2026-04-26 11:30 45.28413 27.78026 34824 ft 482 kts 164°